Location: Albuquerque Trailhead
(34.7934°N, 106.3736°W)
Time: 05:27:52
(UTC+00:00)

ARIANE 5 R/B - Pass Details

Date: 20 June 2021
Orbit: 748 x 795 km, 98.7° (Epoch: 29 July)

Event Time Altitude Azimuth Distance (km) Brightness Sun altitude
Rises 11:17:40 0° 356° (N) 3,200 6.2 -6.9°
Reaches altitude 10° 11:20:27 10° 340° (NNW) 2,273 5.2 -6.4°
Maximum altitude 11:24:05 21° 293° (WNW) 1,650 3.9 -5.8°
Drops below altitude 10° 11:27:45 10° 246° (WSW) 2,274 4.3 -5.1°
Enters shadow 11:28:54 - 238° (WSW) 2,635 4.6 -4.9°
